Regional Weather Roundup
Issued by NWS

Home | Current Version | Previous Version | Text Only | Print | Product List | Glossary Off
Versions: 1 2 3 4 5 6 7 8 9 10 11 12 13 14 15 16 17 18 19 20 21 22 23 24 25 26 27 28 29 30 31 32 33 34 35 36 37 38 39 40 41 42 43 44 45 46 47 48 49 50

000
ASUS43 KMKX 070411
RWRWI

WISCONSIN REGIONAL WEATHER ROUNDUP
NATIONAL WEATHER SERVICE MILWAUKEE/SULLIVAN WI
1000 PM CST TUE DEC 06 2016

NOTE: "FAIR" INDICATES FEW OR NO CLOUDS BELOW 12,000 FEET WITH NO
SIGNIFICANT WEATHER AND/OR OBSTRUCTIONS TO VISIBILITY.

WIZ001-002-006>008-014>016-023>028-070500-
NORTHWEST WISCONSIN

CITY           SKY/WX    TMP DP  RH WIND       PRES   REMARKS
SUPERIOR ARPT  LGT SNOW  22  17  83 SW18G26   29.59R WCI   7
ASHLAND        CLOUDY    22  14  71 SW18G25   29.60R WCI   7
HAYWARD        LGT SNOW  20  12  71 SW17G25   29.64R WCI   5
SIREN          FLURRIES  20  13  72 W16G25    29.69R WCI   6
CUMBERLAND     FLURRIES  19  12  73 W20G29    29.69R WCI   4
RICE LAKE      LGT SNOW  20  14  76 SW14G25   29.73R WCI   7
CHETEK         FLURRIES  20  14  76 MISG      29.73R
LADYSMITH      LGT SNOW  21  15  77 SW17G23   29.71R WCI   7
EAU CLAIRE     FLURRIES  20  13  74 SW18G26   29.78R WCI   5
MENOMONIE      FLURRIES  21  15  76 SW17      29.80R WCI   7
NEW RICHMOND   FLURRIES  20  12  72 W18G25    29.77R WCI   5
OSCEOLA        FLURRIES  21  13  71 SW21G28   29.79R WCI   5
$$

WIZ003>005-009-010-017-018-070500-
NORTH CENTRAL WISCONSIN

CITY           SKY/WX    TMP DP  RH WIND       PRES   REMARKS
MANITOWISH WTR LGT SNOW  19  16  85 SW18G25   29.59R WCI   4
ARBOR VITAE    FLURRIES  22  17  80 SW9G18    29.61R WCI  11
WOODRUFF       FLURRIES  22  17  80 SW9G18    29.61R WCI  11
RHINELANDER    FLURRIES  21  15  78 SW18G28   29.64R WCI   6
EAGLE RIVER    FLURRIES  20  14  76 SW16G26   29.61S WCI   6
LAND O LAKES   FLURRIES  21  15  79 SW12G20   29.61S WCI   9
PHILLIPS       FLURRIES  19  15  82 SW16G25   29.64R WCI   5
TOMAHAWK       FLURRIES  20  15  79 SW7       29.67S WCI  11
MEDFORD        FLURRIES  20  14  79 SW14G24   29.69S WCI   7
MERRILL        FLURRIES  22  16  78 SW16G23   29.70F WCI   8
$$

WIZ029-030-035-036-043>047-070500-
CENTRAL WISCONSIN

CITY           SKY/WX    TMP DP  RH WIND       PRES   REMARKS
WAUSAU         FLURRIES  22  15  75 W14G28    29.72S WCI   9
MOSINEE        CLOUDY    21  18  86 SW20G25   29.74S WCI   6
MARSHFIELD     CLOUDY    22  14  71 W23G31    29.73S WCI   6
STEVENS POINT  FLURRIES  22  15  74 SW14G20   29.77R WCI   9
WAUPACA        CLOUDY    27  19  70 SW15      29.80S WCI  16
WAUTOMA        CLOUDY    25  17  72 SW12G25   29.82R WCI  14
WISC RAPIDS    CLOUDY    24  16  71 W14G25    29.80R WCI  12
CAMP DOUGLAS   CLOUDY    25  16  68 W13       29.83R WCI  13
$$

WIZ011>013-019>022-031-037>040-048>050-070500-
NORTHEAST WISCONSIN

CITY           SKY/WX    TMP DP  RH WIND       PRES   REMARKS
ANTIGO         FLURRIES  20  16  83 W22G32    29.69S WCI   4
SHAWANO        CLOUDY    28  18  66 SW16G26   29.77R WCI  15
OCONTO         CLOUDY    26  16  65 W16G22    29.76R WCI  14
STURGEON BAY   CLOUDY    27  18  69 W22G31    29.75R WCI  13
GREEN BAY      CLOUDY    29  20  69 SW13G21   29.78S WCI  19
MANITOWOC      CLOUDY    27  18  69 MISG      29.80R
APPLETON       CLOUDY    27  16  63 SW16G23   29.77S WCI  14
CLINTONVILLE   CLOUDY    27  18  69 W12G24    29.78R WCI  16
OSHKOSH        CLOUDY    26  16  65 W12G23    29.81R WCI  16
$$

WIZ032>034-041-042-053>061-070500-
SOUTHWEST WISCONSIN

CITY           SKY/WX    TMP DP  RH WIND       PRES   REMARKS
LA CROSSE      CLOUDY    25  15  66 W13       29.89R WCI  14
SPARTA         CLOUDY    25  17  72 W10G16    29.85R WCI  15
VIROQUA        CLOUDY    22  17  79 W23       29.85R WCI   6
BOSCOBEL       CLOUDY    27  15  61 W16G25    29.92S WCI  15
PRAIRIE DU CHI CLOUDY    26  15  63 W18       29.94S WCI  12
PLATTEVILLE    CLEAR     25  18  74 W15G26    29.92S WCI  12
$$

WIZ056-057-062-063-064-067-068-070500-
SOUTH CENTRAL WISCONSIN

CITY           SKY/WX    TMP DP  RH WIND       PRES   REMARKS
REEDSBURG      CLOUDY    25  16  70 W16G23    29.86S WCI  12
BARABOO/DELLS  CLOUDY    25  16  67 W21G26    29.85R WCI  11
LONE ROCK      CLOUDY    26  15  63 W21G32    29.90R WCI  12
MINERAL POINT  PTCLDY    27  19  74 W14       29.88S WCI  15
MADISON        CLOUDY    26  16  65 W10G18    29.88R WCI  16
MIDDLETON      NOT AVBL
WATERTOWN      CLOUDY    26  18  71 SW18G24   29.87S WCI  13
MONROE         MOCLDY    27  19  74 W24G30    29.90S WCI  12
JANESVILLE     MOCLDY    28  19  69 W23G31    29.91S WCI  14
$$

WIZ051-052-058>065-066-070>072-070500-
SOUTHEAST WISCONSIN

CITY           SKY/WX    TMP DP  RH WIND       PRES   REMARKS
MILWAUKEE      CLOUDY    29  17  61 W16G30    29.88S WCI  17
WAUKESHA       CLOUDY    27  18  69 W16G25    29.88S WCI  14
MILWAUKEE/TIMM CLOUDY    28  18  64 W14G25    29.88S WCI  17
RACINE         CLOUDY    28  17  63 W16G25    29.91R WCI  16
BURLINGTON     CLOUDY    28  20  73 W13G24    29.91R WCI  17
KENOSHA        CLOUDY    28  19  69 W20G26    29.91R WCI  15
FOND DU LAC    CLOUDY    27  15  61 W13G29    29.83S WCI  16
SHEBOYGAN      CLOUDY    27  18  69 W16G29    29.82S WCI  15
WEST BEND      CLOUDY    27  19  74 W17       29.84S WCI  14
JUNEAU         CLOUDY    26  18  73 SW20      29.87R WCI  12
$$

LSZ147-162-070500-
LAKE SUPERIOR

STATION/POSITION TIME  TEMP    WIND        PRES    WAVE
                       AIR SEA DIR/SP/G            HT/PER
                 (UTC) (F)     (DEG/KT/KT) (MB)    (FT/S)
DEVILS ISLAND    0400   25     230/ 29/ 36 1001.2R
PORT WING        0340   24     210/ 17/ 23 1001.7R
SAXON HARBOR     0330   24     200/ 12/ 20 1002.4R
$$

LMZ867-665-643>646-070500-
LAKE MICHIGAN

STATION/POSITION TIME  TEMP    WIND        PRES    WAVE
                       AIR SEA DIR/SP/G            HT/PER
                 (UTC) (F)     (DEG/KT/KT) (MB)    (FT/S)
CHAMBERS ISLAND  0340   27     220/ 12/ 22 1006.1R
NORTHPORT PIER   0340   28     250/ 10/ 20 1006.4R
SISTER BAY       0353   29     260/ 24/ 30   N/A
ALGOMA LAKESHORE 0336          280/ 15/ 24   N/A
KEWAUNEE LAKESHO 0348   28     320/ 15/ 24 1008.1R
SHEBOYGAN LAKESH 0400   28     260/ 19/ 21 1010.5R
PORT WASHINGTON  0340   28     260/ 11/ 23 1011.5S
MILWAUKEE LAKESH 0350   29     250/ 19/ 23   N/A
KENOSHA   LAKESH 0400   29     260/ 15/ 25 1013.2
$$

TC  - TEMPERATURE IN CELSIUS
VSB - VISIBILITY IN STATUTE MILES
WCI - WIND CHILL INDEX
HX  - HEAT INDEX





USA.gov is the U.S. government's official web portal to all federal, state and local government web resources and services.